Precipitable_Water
0.55 0.52 0.52 0.51 0.49 0.41 0.41 0.35 0.22 0.41 0.54 0.27 0.32 0.26 0.31 0.38 0.37 0.45 0.42 0.42 0.38 0.34 0.37 0.37 0.35 0.34 0.38 0.42 0.26 0.19 0.26 0.25 0.19 0.24 0.35 0.42 0.43 0.35 0.35 0.29 0.26 0.29 0.28 0.24
0.53 0.50 0.50 0.50 0.48 0.40 0.34 0.25 0.25 0.37 0.40 0.18 0.23 0.29 0.30 0.34 0.35 0.38 0.37 0.37 0.41 0.42 0.36 0.33 0.39 0.40 0.46 0.40 0.23 0.20 0.25 0.23 0.16 0.20 0.29 0.39 0.35 0.36 0.36 0.36 0.35 0.28 0.25 0.27
0.51 0.49 0.48 0.48 0.46 0.40 0.33 0.24 0.17 0.24 0.29 0.30 0.25 0.24 0.24 0.24 0.35 0.39 0.41 0.40 0.41 0.38 0.34 0.41 0.38 0.39 0.43 0.40 0.30 0.27 0.24 0.22 0.21 0.18 0.23 0.30 0.28 0.31 0.34 0.33 0.28 0.29 0.30 0.30
0.49 0.49 0.48 0.46 0.42 0.39 0.31 0.24 0.19 0.22 0.16 0.19 0.20 0.22 0.19 0.19 0.25 0.33 0.41 0.37 0.35 0.34 0.31 0.33 0.36 0.41 0.41 0.43 0.38 0.31 0.26 0.19 0.23 0.27 0.33 0.35 0.30 0.27 0.30 0.30 0.31 0.29 0.31 0.30
0.51 0.49 0.47 0.45 0.40 0.38 0.28 0.21 0.20 0.23 0.19 0.20 0.19 0.17 0.16 0.16 0.20 0.31 0.32 0.32 0.34 0.39 0.34 0.36 0.33 0.41 0.41 0.39 0.43 0.36 0.32 0.25 0.33 0.28 0.32 0.34 0.30 0.30 0.29 0.30 0.31 0.31 0.32 0.31
0.51 0.49 0.47 0.44 0.40 0.35 0.28 0.32 0.31 0.23 0.18 0.18 0.16 0.15 0.15 0.15 0.19 0.23 0.34 0.35 0.34 0.35 0.39 0.44 0.46 0.49 0.51 0.49 0.44 0.38 0.35 0.32 0.30 0.28 0.36 0.33 0.26 0.28 0.30 0.28 0.30 0.33 0.29 0.34
0.51 0.49 0.49 0.44 0.40 0.37 0.33 0.32 0.28 0.19 0.14 0.16 0.16 0.18 0.18 0.16 0.17 0.17 0.29 0.38 0.36 0.42 0.50 0.53 0.52 0.48 0.48 0.49 0.48 0.49 0.37 0.35 0.33 0.28 0.32 0.20 0.32 0.41 0.37 0.31 0.31 0.34 0.36 0.40
0.50 0.50 0.51 0.47 0.41 0.40 0.35 0.36 0.27 0.19 0.15 0.17 0.17 0.18 0.18 0.19 0.19 0.18 0.25 0.35 0.41 0.48 0.47 0.38 0.32 0.32 0.34 0.38 0.43 0.45 0.47 0.39 0.28 0.26 0.26 0.31 0.32 0.38 0.39 0.32 0.29 0.36 0.35 0.38
0.51 0.48 0.50 0.51 0.44 0.42 0.38 0.38 0.36 0.24 0.18 0.16 0.21 0.19 0.20 0.17 0.16 0.18 0.23 0.39 0.49 0.48 0.41 0.34 0.26 0.24 0.27 0.28 0.34 0.42 0.41 0.40 0.32 0.26 0.22 0.19 0.33 0.42 0.50 0.49 0.28 0.41 0.41 0.41
0.48 0.48 0.51 0.51 0.45 0.43 0.40 0.39 0.41 0.28 0.19 0.23 0.23 0.18 0.18 0.23 0.20 0.16 0.21 0.34 0.37 0.45 0.36 0.29 0.27 0.26 0.33 0.24 0.27 0.31 0.31 0.32 0.28 0.27 0.23 0.28 0.39 0.47 0.54 0.30 0.33 0.48 0.46 0.47
0.48 0.48 0.53 0.51 0.47 0.45 0.43 0.40 0.44 0.31 0.23 0.25 0.27 0.26 0.21 0.21 0.22 0.16 0.20 0.31 0.35 0.35 0.29 0.30 0.30 0.28 0.31 0.29 0.32 0.32 0.31 0.27 0.26 0.27 0.23 0.20 0.44 0.46 0.36 0.48 0.52 0.49 0.51 0.53
0.49 0.49 0.52 0.52 0.49 0.48 0.48 0.37 0.43 0.42 0.29 0.27 0.35 0.34 0.34 0.31 0.29 0.24 0.24 0.30 0.36 0.36 0.31 0.31 0.35 0.30 0.33 0.31 0.24 0.38 0.29 0.35 0.31 0.31 0.30 0.41 0.48 0.47 0.55 0.55 0.54 0.54 0.54 0.57
0.50 0.50 0.53 0.54 0.51 0.51 0.49 0.42 0.41 0.37 0.28 0.28 0.29 0.28 0.33 0.37 0.35 0.36 0.21 0.27 0.41 0.40 0.44 0.36 0.35 0.31 0.36 0.26 0.29 0.33 0.37 0.42 0.35 0.34 0.39 0.42 0.50 0.56 0.58 0.58 0.57 0.60 0.61 0.59
0.51 0.52 0.53 0.53 0.53 0.55 0.51 0.43 0.42 0.35 0.28 0.21 0.25 0.38 0.35 0.40 0.38 0.36 0.33 0.31 0.35 0.41 0.43 0.36 0.35 0.32 0.42 0.34 0.35 0.33 0.37 0.39 0.36 0.35 0.40 0.44 0.51 0.56 0.56 0.58 0.58 0.58 0.61 0.61
0.53 0.55 0.53 0.53 0.56 0.58 0.52 0.47 0.45 0.41 0.27 0.19 0.23 0.31 0.33 0.39 0.39 0.36 0.36 0.31 0.28 0.28 0.29 0.35 0.34 0.41 0.41 0.41 0.40 0.35 0.41 0.37 0.33 0.33 0.44 0.43 0.47 0.57 0.60 0.59 0.58 0.58 0.57 0.57
0.55 0.55 0.54 0.56 0.55 0.56 0.46 0.32 0.43 0.45 0.38 0.23 0.18 0.29 0.28 0.30 0.38 0.38 0.36 0.34 0.30 0.26 0.23 0.25 0.36 0.46 0.42 0.33 0.32 0.40 0.45 0.47 0.48 0.43 0.51 0.51 0.55 0.57 0.59 0.56 0.57 0.58 0.57 0.58
0.59 0.56 0.55 0.56 0.56 0.55 0.38 0.30 0.39 0.45 0.42 0.24 0.19 0.20 0.26 0.29 0.32 0.33 0.36 0.38 0.34 0.31 0.26 0.22 0.25 0.35 0.42 0.37 0.30 0.40 0.45 0.50 0.52 0.54 0.54 0.49 0.53 0.52 0.58 0.59 0.60 0.61 0.60 0.58
0.61 0.56 0.57 0.60 0.59 0.60 0.43 0.49 0.50 0.45 0.32 0.26 0.16 0.16 0.19 0.26 0.20 0.22 0.36 0.32 0.34 0.34 0.30 0.31 0.26 0.31 0.36 0.31 0.42 0.48 0.49 0.52 0.52 0.53 0.57 0.56 0.58 0.58 0.57 0.58 0.57 0.55 0.54 0.54
0.58 0.54 0.60 0.56 0.56 0.48 0.44 0.55 0.51 0.44 0.31 0.19 0.17 0.11 0.10 0.24 0.20 0.26 0.31 0.34 0.25 0.36 0.30 0.32 0.35 0.29 0.26 0.36 0.43 0.47 0.50 0.51 0.51 0.56 0.57 0.58 0.55 0.55 0.55 0.55 0.55 0.53 0.52 0.53
0.57 0.51 0.44 0.39 0.52 0.64 0.57 0.45 0.34 0.31 0.30 0.26 0.17 0.19 0.13 0.20 0.18 0.21 0.25 0.32 0.27 0.23 0.30 0.39 0.32 0.31 0.39 0.40 0.44 0.48 0.50 0.53 0.54 0.51 0.50 0.53 0.52 0.52 0.50 0.50 0.53 0.53 0.52 0.52
0.46 0.40 0.39 0.53 0.68 0.52 0.42 0.33 0.27 0.26 0.22 0.23 0.20 0.20 0.15 0.24 0.15 0.17 0.26 0.24 0.28 0.21 0.28 0.30 0.28 0.30 0.38 0.45 0.47 0.51 0.53 0.53 0.52 0.52 0.54 0.55 0.53 0.52 0.50 0.50 0.51 0.51 0.50 0.49
0.42 0.45 0.54 0.56 0.49 0.39 0.33 0.29 0.27 0.22 0.18 0.22 0.19 0.20 0.21 0.22 0.27 0.22 0.26 0.22 0.26 0.19 0.35 0.28 0.23 0.32 0.41 0.45 0.47 0.51 0.51 0.51 0.51 0.52 0.52 0.53 0.52 0.51 0.50 0.48 0.47 0.48 0.48 0.49
0.49 0.44 0.44 0.43 0.41 0.31 0.28 0.22 0.22 0.19 0.21 0.23 0.22 0.18 0.20 0.23 0.25 0.21 0.22 0.20 0.21 0.32 0.26 0.24 0.27 0.36 0.41 0.44 0.48 0.50 0.53 0.53 0.53 0.52 0.53 0.53 0.51 0.51 0.49 0.47 0.47 0.43 0.36 0.34
0.38 0.36 0.34 0.35 0.31 0.30 0.29 0.26 0.21 0.23 0.24 0.23 0.22 0.20 0.19 0.22 0.18 0.20 0.16 0.23 0.27 0.22 0.19 0.21 0.29 0.34 0.37 0.43 0.47 0.48 0.49 0.51 0.51 0.51 0.51 0.49 0.47 0.41 0.36 0.34 0.36 0.34 0.30 0.26
0.37 0.39 0.34 0.34 0.35 0.34 0.32 0.30 0.26 0.28 0.28 0.24 0.21 0.21 0.21 0.19 0.17 0.20 0.21 0.19 0.19 0.21 0.19 0.25 0.31 0.34 0.35 0.39 0.44 0.46 0.48 0.49 0.49 0.49 0.42 0.39 0.38 0.39 0.40 0.39 0.35 0.27 0.20 0.16
0.40 0.38 0.34 0.35 0.35 0.34 0.33 0.30 0.27 0.31 0.28 0.26 0.23 0.19 0.17 0.17 0.19 0.18 0.17 0.18 0.16 0.20 0.23 0.27 0.29 0.29 0.31 0.33 0.42 0.44 0.47 0.49 0.49 0.49 0.44 0.38 0.38 0.41 0.41 0.38 0.29 0.24 0.20 0.17
0.40 0.35 0.39 0.36 0.32 0.30 0.30 0.31 0.31 0.33 0.26 0.18 0.19 0.15 0.15 0.21 0.18 0.17 0.22 0.18 0.22 0.24 0.23 0.24 0.24 0.23 0.25 0.30 0.38 0.44 0.45 0.47 0.47 0.47 0.46 0.44 0.47 0.47 0.41 0.33 0.27 0.24 0.22 0.20
Wind_Speed
12 14 17 20 23 22 21 20 21 24 25 25 25 24 23 22 18 14 9 6 7 9 11 9 11 12 10 4 6 10 13 11 12 12 12 17 16 15 13 9 11 8 7 9
10 13 15 19 21 21 20 19 21 22 24 24 24 24 24 21 19 13 10 6 7 7 9 9 13 14 11 6 8 12 14 11 11 9 11 19 18 17 14 11 8 8 8 11
9 11 14 17 20 19 19 18 19 21 23 23 24 24 24 23 19 12 9 6 5 8 7 8 11 11 10 6 6 7 11 9 8 7 10 18 17 19 17 13 9 8 11 12
8 10 12 16 18 17 17 19 18 20 21 22 23 23 24 23 20 15 10 4 7 5 5 8 10 10 8 6 4 4 8 7 8 9 13 14 16 20 20 16 14 9 12 8
8 9 11 14 16 15 17 17 18 18 20 21 21 23 22 23 20 15 10 7 7 5 4 6 7 10 5 5 2 3 5 6 5 6 12 16 17 18 21 19 16 13 10 8
9 8 9 12 15 14 15 17 18 18 19 20 20 22 22 22 22 14 11 9 6 5 4 8 9 6 4 4 3 5 6 6 6 6 10 14 14 19 22 21 18 16 14 10
9 6 7 9 13 14 14 16 17 18 18 19 20 20 21 21 21 15 14 9 5 4 9 7 2 3 2 2 1 2 5 6 6 6 9 9 8 10 18 22 21 20 16 11
11 7 6 7 10 13 14 16 17 18 18 19 20 20 21 22 20 15 11 9 7 8 5 2 0 1 1 3 2 4 4 4 7 7 8 5 6 8 12 20 21 22 22 20
13 9 5 6 7 10 13 16 17 17 17 19 20 20 21 20 20 16 13 10 7 5 2 2 0 1 2 2 2 2 3 4 5 7 6 4 3 4 8 13 14 15 24 22
14 10 6 5 6 8 11 15 17 17 17 19 20 20 20 19 19 16 14 11 9 6 3 1 1 0 1 1 2 1 1 2 4 5 5 4 3 4 7 10 8 11 16 21
15 11 7 4 4 6 10 14 15 15 17 18 19 20 20 19 18 17 15 9 8 5 2 2 2 2 1 2 1 1 1 2 3 5 5 5 3 4 6 6 6 8 11 15
17 13 8 5 3 5 9 12 13 14 16 17 19 21 20 19 18 16 14 11 7 5 2 2 3 2 2 3 2 2 2 2 3 4 4 4 5 4 4 6 6 6 7 10
19 14 10 7 4 5 8 10 10 12 14 16 19 21 21 20 18 17 13 10 8 5 3 3 3 4 3 3 3 4 4 3 4 4 4 5 5 6 5 5 6 6 6 8
20 16 12 8 6 4 7 9 10 11 12 15 16 19 20 21 20 17 13 11 8 6 5 5 5 5 4 5 6 6 6 6 5 6 5 6 7 6 6 6 6 6 6 6
22 17 13 10 7 6 5 8 9 11 12 13 13 16 19 20 20 18 15 12 10 8 6 6 7 7 7 7 7 7 6 6 6 5 5 6 6 7 7 7 7 7 7 6
23 18 14 11 9 6 6 9 10 10 10 11 12 15 16 19 20 19 16 14 12 9 8 8 10 11 9 8 7 6 6 6 7 7 6 7 7 7 7 7 7 7 7 8
23 19 15 12 9 9 9 9 8 8 9 10 11 13 16 18 19 19 17 15 14 12 9 8 10 11 11 10 10 8 9 9 8 8 8 8 8 8 8 9 9 9 9 9
23 19 16 13 10 8 8 8 8 8 9 10 11 13 14 18 18 18 17 15 14 12 11 9 9 10 12 12 10 10 10 9 9 10 10 10 9 9 9 10 11 11 11 11
24 19 16 13 13 12 10 7 8 8 9 9 11 13 13 17 18 17 17 15 15 13 12 10 8 8 10 12 11 10 9 9 9 9 10 10 10 10 11 12 12 13 13 13
24 18 16 15 14 10 9 10 10 9 9 9 10 12 13 15 17 16 17 15 15 13 11 10 7 8 8 12 15 15 14 12 12 12 12 12 13 13 13 12 13 13 14 15
22 18 15 14 13 13 11 10 9 9 9 9 10 12 14 14 15 15 15 16 15 13 12 10 9 7 9 10 11 12 12 12 13 14 14 13 12 13 13 13 13 14 15 16
22 17 14 14 14 13 11 10 10 10 9 9 11 12 13 14 14 14 14 14 14 12 13 11 9 9 11 10 11 12 12 12 12 12 12 12 12 12 12 12 13 13 14 15
20 18 16 15 15 13 13 11 11 11 10 10 11 12 13 13 13 13 14 14 13 15 12 11 10 12 12 12 12 12 14 14 13 13 13 13 12 11 10 10 10 11 12 13
19 18 15 15 14 15 13 12 10 10 9 10 11 12 13 13 13 13 13 14 15 13 12 12 13 15 15 15 15 15 16 17 16 15 14 13 13 12 11 10 11 12 12 12
18 17 15 16 14 12 10 10 10 10 10 11 12 13 13 13 13 12 14 13 13 13 13 15 16 17 17 17 16 16 16 16 17 17 16 16 15 14 12 11 11 10 10 10
17 16 14 14 13 13 13 12 11 12 11 12 14 13 13 13 13 13 14 15 15 14 16 18 19 20 20 18 18 17 16 16 17 17 17 16 15 14 12 11 10 9 8 8
17 16 16 14 12 13 13 13 13 13 13 14 13 13 13 14 14 15 15 16 16 18 21 23 24 24 23 21 19 17 15 13 14 16 17 17 16 15 13 11 9 8 7 7
Wind_Direction
308 326 339 346 350 354 358 359 0 1 3 5 5 5 1 359 355 354 352 341 344 355 359 5 3 6 7 42 131 164 171 169 173 186 181 185 191 180 180 185 178 188 204 187
305 325 339 348 351 355 357 359 0 1 4 5 6 5 4 2 358 356 356 350 356 351 2 9 11 23 23 75 113 148 163 169 163 179 197 186 188 185 187 176 178 180 189 167
298 323 338 347 352 355 358 359 360 3 7 6 5 5 5 4 3 359 354 347 352 354 358 14 13 26 35 63 91 146 164 173 188 179 181 179 188 193 194 191 187 169 150 148
289 320 334 345 351 355 358 1 1 3 4 6 7 6 5 3 5 2 355 354 359 345 349 6 15 28 43 45 67 106 172 186 194 212 197 192 196 195 193 193 193 180 162 163
287 313 333 345 352 357 2 1 2 2 5 4 3 6 7 5 3 3 2 350 339 336 347 8 356 9 36 36 97 124 165 179 186 188 195 199 196 202 203 206 204 207 188 193
271 301 329 346 355 356 360 2 3 1 4 4 3 6 5 2 1 2 357 344 329 315 343 327 321 321 333 24 62 155 151 176 177 178 177 179 201 209 207 207 208 203 204 201
250 278 321 344 356 2 3 2 3 2 4 4 4 3 1 358 358 358 356 353 335 326 317 311 12 44 35 32 102 122 173 182 185 166 176 191 200 211 210 211 214 218 217 204
233 254 299 335 355 4 6 5 3 3 5 5 3 0 360 359 0 3 359 358 338 318 304 291 92 61 58 56 77 166 160 172 182 185 187 175 192 209 213 214 228 227 225 223
226 237 275 319 345 2 7 8 6 6 7 5 4 3 3 4 6 7 5 359 344 329 288 271 279 38 355 17 68 131 144 193 191 181 195 201 213 216 223 210 225 222 220 221
217 228 253 302 336 352 358 4 6 8 9 8 6 7 6 4 5 3 5 3 0 352 335 324 322 320 296 348 0 9 164 170 184 183 193 193 219 225 190 209 206 225 218 215
212 220 236 271 319 344 353 3 6 7 11 12 9 8 7 5 4 6 4 3 9 1 346 299 283 271 310 268 274 321 240 207 192 204 207 206 224 207 215 212 217 217 210 213
210 214 227 244 293 336 347 358 5 10 11 12 11 9 7 8 7 6 9 13 13 12 315 296 267 259 272 284 249 235 229 238 229 215 208 220 224 215 210 204 198 191 187 198
208 214 223 235 264 325 344 356 360 5 7 9 8 10 10 10 8 9 8 10 8 6 347 281 260 260 271 274 273 269 240 230 234 236 212 214 208 204 202 196 191 199 207 209
207 211 219 231 253 298 336 344 349 351 354 360 4 8 11 12 11 9 6 5 356 337 308 282 263 263 261 270 275 264 257 251 239 239 230 221 212 205 203 202 201 202 213 218
207 212 221 232 252 280 316 341 344 345 345 352 0 3 6 6 8 7 5 358 346 334 302 273 258 256 264 269 272 257 243 243 236 233 245 231 222 215 218 211 214 221 222 226
206 211 221 230 246 252 296 319 327 336 341 346 351 357 1 3 6 6 4 0 354 339 311 281 266 259 265 262 258 262 252 247 242 241 247 238 226 224 226 224 229 234 236 237
205 211 219 229 237 263 295 310 314 322 331 337 345 348 353 356 358 0 0 358 355 346 332 295 272 263 254 256 257 264 259 255 251 246 238 234 230 235 235 234 236 239 242 247
206 211 219 227 241 261 291 303 314 313 324 333 337 342 346 352 354 357 357 356 352 349 340 323 291 266 252 252 260 269 261 259 255 248 245 243 236 239 244 245 245 247 251 254
204 210 214 234 259 266 279 287 307 310 311 319 330 338 340 345 351 352 354 355 352 351 344 335 317 288 262 255 260 265 266 258 261 250 241 241 244 248 254 255 255 254 256 259
197 209 239 249 258 246 269 286 295 297 303 309 320 331 335 339 344 347 349 352 352 349 344 339 329 310 291 271 256 258 262 260 257 251 249 251 254 258 260 259 259 260 261 264
214 230 246 240 243 261 273 278 286 289 295 298 310 319 327 331 337 339 344 347 347 346 350 339 325 319 318 294 264 256 258 257 254 252 253 257 260 257 258 261 264 266 268 269
218 224 225 241 257 261 268 275 276 281 281 286 302 312 318 324 327 331 336 339 342 339 343 334 323 323 318 310 279 261 257 256 254 252 251 254 257 260 263 266 269 272 273 274
214 234 242 251 260 256 257 257 269 273 274 284 298 307 313 316 320 323 328 330 331 334 332 332 332 320 313 304 293 272 258 257 255 255 254 253 253 256 259 263 271 275 279 281
229 236 242 251 257 259 257 257 261 271 274 285 299 304 307 310 313 317 318 322 326 325 328 332 320 317 310 303 294 282 271 258 254 253 253 250 248 249 257 267 274 280 281 286
230 238 247 250 253 259 254 248 257 270 274 289 297 301 302 304 305 307 312 315 315 320 319 321 319 315 308 298 295 289 275 261 255 250 247 246 246 249 256 265 274 280 282 288
235 242 249 251 250 251 249 252 258 266 276 290 296 297 297 294 299 300 298 306 304 308 311 314 315 315 305 296 290 287 279 266 253 248 244 242 241 244 251 257 268 276 281 280
239 247 247 248 255 246 245 252 259 264 277 286 289 289 287 297 297 297 298 299 302 305 307 309 309 306 301 291 284 281 275 266 254 247 242 239 237 240 244 250 257 265 272 277